Metropolis, IL

9:27 PM CDT on October 19, 2017 (GMT -0500)
Metropolis

Weather History for KM30 - October, 2011

Change the Weather History Date:

Thursday, October 20, 2011

  Actual Average (KPAH) Record (KPAH)
Temperature  
Mean Temperature 48 °F -  
Max Temperature 55 °F 68 °F 87 °F (1953)
Min Temperature 41 °F 43 °F 29 °F (1972)
Degree Days  
Heating Degree Days 17    
Moisture  
Dew Point 35 °F    
Average Humidity 61    
Maximum Humidity 81    
Minimum Humidity 41    
Precipitation  
Precipitation 0.00 in - - ()
Sea Level Pressure  
Sea Level Pressure 29.87 in    
Wind  
Wind Speed 10 mph (West)    
Max Wind Speed 18 mph    
Max Gust Speed 25 mph    
Visibility 10 miles    
Events      
Averages and records for this station are not official NWS values.
T = Trace of Precipitation, MM = Missing Value Source: NWS Daily Summary

Daily Weather History Graph

Daily Weather History Graph

Search for Another Location

Airport or City:

Trip Planner

Search our weather history database for the weather conditions in past years. The results will help you decide how hot, cold, wet, or windy it might be!

Date:

Astronomy

Oct. 20, 2011 Rise Set
Actual Time 7:07 AM CDT 6:11 PM CDT
Civil Twilight 6:40 AM CDT 6:38 PM CDT
Nautical Twilight 6:10 AM CDT 7:08 PM CDT
Astronomical Twilight 5:40 AM CDT 7:38 PM CDT
Moon 12:01 AM CDT 2:12 PM CDT
Length of Visible Light 11h 57m
Length of Day
11h 04m
Last Quarter, 44% of the Moon is Illuminated
Oct 20
Last Quarter
Oct 26
New
Nov 2
First Quarter
Nov 10
Full
Nov 18
Last Quarter

Hourly Weather History & Observations

Time (CDT) Temp. Windchill Dew Point Humidity Pressure Visibility Wind Dir Wind Speed Gust Speed Precip Events Conditions
12:15 AM 44.6 °F 38.8 °F 37.4 °F 76% 29.75 in 10.0 mi WNW 11.5 mph - N/A   Overcast
12:35 AM 44.6 °F 40.2 °F 37.4 °F 76% 29.75 in 10.0 mi West 8.1 mph 16.1 mph N/A   Overcast
12:55 AM 44.6 °F 39.2 °F 37.4 °F 76% 29.74 in 10.0 mi West 10.4 mph 16.1 mph N/A   Overcast
1:35 AM 46.4 °F 41.9 °F 37.4 °F 71% 29.74 in 10.0 mi West 9.2 mph - N/A   Overcast
1:55 AM 46.4 °F 40.7 °F 37.4 °F 71% 29.75 in 10.0 mi West 12.7 mph 18.4 mph N/A   Overcast
2:15 AM 46.4 °F 40.1 °F 37.4 °F 71% 29.75 in 10.0 mi West 15.0 mph 20.7 mph N/A   Overcast
2:35 AM 46.4 °F 40.7 °F 35.6 °F 66% 29.75 in 10.0 mi West 12.7 mph 19.6 mph N/A   Overcast
3:15 AM 46.4 °F 41.5 °F 35.6 °F 66% 29.75 in 10.0 mi West 10.4 mph 17.3 mph N/A   Overcast
3:35 AM 46.4 °F 42.4 °F 37.4 °F 71% 29.76 in 10.0 mi WSW 8.1 mph 21.9 mph N/A   Overcast
3:55 AM 44.6 °F 39.7 °F 37.4 °F 76% 29.76 in 10.0 mi West 9.2 mph - N/A   Overcast
4:15 AM 44.6 °F 40.7 °F 37.4 °F 76% 29.76 in 10.0 mi WSW 6.9 mph - N/A   Overcast
4:55 AM 46.4 °F 42.4 °F 37.4 °F 71% 29.78 in 10.0 mi West 8.1 mph 17.3 mph N/A   Overcast
5:15 AM 46.4 °F 40.7 °F 35.6 °F 66% 29.78 in 10.0 mi West 12.7 mph - N/A   Overcast
5:35 AM 46.4 °F 41.5 °F 35.6 °F 66% 29.78 in 10.0 mi West 10.4 mph - N/A   Overcast
5:55 AM 46.4 °F 40.7 °F 35.6 °F 66% 29.78 in 10.0 mi West 12.7 mph 20.7 mph N/A   Overcast
6:15 AM 46.4 °F 39.8 °F 35.6 °F 66% 29.79 in 10.0 mi WNW 16.1 mph 24.2 mph N/A   Overcast
6:35 AM 44.6 °F 39.7 °F 35.6 °F 71% 29.79 in 10.0 mi West 9.2 mph 24.2 mph N/A   Scattered Clouds
6:55 AM 44.6 °F 39.2 °F 35.6 °F 71% 29.80 in 10.0 mi West 10.4 mph - N/A   Clear
7:15 AM 44.6 °F 38.4 °F 35.6 °F 71% 29.81 in 10.0 mi West 12.7 mph - N/A   Clear
7:35 AM 44.6 °F 38.8 °F 35.6 °F 71% 29.81 in 10.0 mi West 11.5 mph 17.3 mph N/A   Clear
7:55 AM 44.6 °F 38.4 °F 35.6 °F 71% 29.82 in 10.0 mi West 12.7 mph 17.3 mph N/A   Clear
8:15 AM 44.6 °F 40.2 °F 35.6 °F 71% 29.84 in 10.0 mi West 8.1 mph 16.1 mph N/A   Clear
8:35 AM 46.4 °F 41.1 °F 35.6 °F 66% 29.85 in 10.0 mi West 11.5 mph 17.3 mph N/A   Clear
8:55 AM 46.4 °F 41.5 °F 35.6 °F 66% 29.86 in 10.0 mi West 10.4 mph 23.0 mph N/A   Clear
9:15 AM 46.4 °F 40.7 °F 37.4 °F 71% 29.86 in 10.0 mi West 12.7 mph - N/A   Scattered Clouds
9:35 AM 48.2 °F - 35.6 °F 62% 29.87 in 10.0 mi West 10.4 mph 17.3 mph N/A   Scattered Clouds
9:55 AM 48.2 °F - 35.6 °F 62% 29.87 in 10.0 mi West 12.7 mph 20.7 mph N/A   Clear
10:15 AM 50.0 °F - 35.6 °F 58% 29.88 in 10.0 mi West 12.7 mph 19.6 mph N/A   Scattered Clouds
10:35 AM 50.0 °F - 37.4 °F 62% 29.88 in 10.0 mi WNW 10.4 mph - N/A   Clear
11:15 AM 51.8 °F - 35.6 °F 54% 29.88 in 10.0 mi West 13.8 mph 19.6 mph N/A   Scattered Clouds
11:35 AM 51.8 °F - 33.8 °F 50% 29.89 in 10.0 mi WNW 11.5 mph 21.9 mph N/A   Clear
11:55 AM 53.6 °F - 33.8 °F 47% 29.89 in 10.0 mi West 18.4 mph 24.2 mph N/A   Scattered Clouds
12:35 PM 53.6 °F - 33.8 °F 47% 29.89 in 10.0 mi West 12.7 mph 21.9 mph N/A   Scattered Clouds
12:55 PM 55.4 °F - 33.8 °F 44% 29.89 in 10.0 mi West 13.8 mph 21.9 mph N/A   Scattered Clouds
1:15 PM 55.4 °F - 32.0 °F 41% 29.89 in 10.0 mi West 15.0 mph 25.3 mph N/A   Scattered Clouds
1:35 PM 55.4 °F - 33.8 °F 44% 29.89 in 10.0 mi West 12.7 mph 24.2 mph N/A   Scattered Clouds
1:55 PM 55.4 °F - 33.8 °F 44% 29.89 in 10.0 mi West 13.8 mph 19.6 mph N/A   Mostly Cloudy
2:15 PM 55.4 °F - 33.8 °F 44% 29.89 in 10.0 mi WSW 11.5 mph 19.6 mph N/A   Mostly Cloudy
2:35 PM 55.4 °F - 33.8 °F 44% 29.89 in 10.0 mi West 10.4 mph 19.6 mph N/A   Scattered Clouds
2:55 PM 55.4 °F - 33.8 °F 44% 29.89 in 10.0 mi WNW 12.7 mph - N/A   Scattered Clouds
3:15 PM 53.6 °F - 32.0 °F 44% 29.90 in 10.0 mi West 11.5 mph 19.6 mph N/A   Scattered Clouds
3:35 PM 55.4 °F - 33.8 °F 44% 29.90 in 10.0 mi West 10.4 mph - N/A   Scattered Clouds
3:55 PM 55.4 °F - 33.8 °F 44% 29.91 in 10.0 mi WSW 9.2 mph - N/A   Scattered Clouds
4:15 PM 55.4 °F - 33.8 °F 44% 29.91 in 10.0 mi West 11.5 mph - N/A   Mostly Cloudy
4:55 PM 55.4 °F - 32.0 °F 41% 29.92 in 10.0 mi WNW 9.2 mph - N/A   Mostly Cloudy
5:15 PM 55.4 °F - 32.0 °F 41% 29.93 in 10.0 mi West 6.9 mph - N/A   Scattered Clouds
5:35 PM 53.6 °F - 33.8 °F 47% 29.93 in 10.0 mi WNW 4.6 mph - N/A   Mostly Cloudy
5:55 PM 53.6 °F - 33.8 °F 47% 29.94 in 10.0 mi WNW 5.8 mph - N/A   Overcast
6:15 PM 51.8 °F - 33.8 °F 50% 29.95 in 10.0 mi Calm Calm - N/A   Overcast
6:35 PM 51.8 °F - 33.8 °F 50% 29.96 in 10.0 mi Calm Calm - N/A   Overcast
6:55 PM 50.0 °F - 35.6 °F 58% 29.96 in 10.0 mi Calm Calm - N/A   Overcast
7:15 PM 46.4 °F - 37.4 °F 71% 29.97 in 10.0 mi Calm Calm - N/A   Scattered Clouds
7:35 PM 46.4 °F - 35.6 °F 66% 29.98 in 10.0 mi Calm Calm - N/A   Scattered Clouds
7:55 PM 44.6 °F - 35.6 °F 71% 29.99 in 10.0 mi Calm Calm - N/A   Scattered Clouds
8:15 PM 44.6 °F - 35.6 °F 71% 29.99 in 10.0 mi Calm Calm - N/A   Scattered Clouds
8:35 PM 42.8 °F - 37.4 °F 81% 30.00 in 10.0 mi Calm Calm - N/A   Clear
8:55 PM 42.8 °F - 35.6 °F 76% 30.01 in 10.0 mi Calm Calm - N/A   Clear
9:15 PM 41.0 °F - 35.6 °F 81% 30.02 in 10.0 mi Calm Calm - N/A   Clear
9:35 PM 41.0 °F - 35.6 °F 81% 30.03 in 10.0 mi Calm Calm - N/A   Clear
9:55 PM 41.0 °F - 35.6 °F 81% 30.03 in 10.0 mi Calm Calm - N/A   Clear
10:15 PM 39.2 °F - 35.6 °F 87% 30.04 in 10.0 mi Calm Calm - N/A   Clear
10:35 PM 37.4 °F - 35.6 °F 93% 30.04 in 10.0 mi Calm Calm - N/A   Clear
10:55 PM 37.4 °F - 35.6 °F 93% 30.04 in 10.0 mi Calm Calm - N/A   Clear
11:15 PM 37.4 °F - 35.6 °F 93% 30.05 in 10.0 mi Calm Calm - N/A   Clear
11:35 PM 37.4 °F - 35.6 °F 93% 30.05 in 10.0 mi Calm Calm - N/A   Clear
11:55 PM 37.4 °F - 35.6 °F 93% 30.05 in 10.0 mi Calm Calm - N/A   Clear